Search for airport 
image banner adimage banner ad
image banner ad

DAUK - Touggourt / Sidi Mahdi

Located in , Algeria

ICAO - DAUK, IATA - TGR

Data provided by Airmate  

General information

Coordinates: N33°3'36" E6°5'14"
Elevation is 278 feet MSL.
 
View others Airports in Ouargla Province

Operational data

Open for public use
Current time UTC:
Current local time:
Weather
METAR: DAUK 222300Z 01004KT CAVOK 20/10 Q1018
TAF: TAF DAUK 222000Z 2221/2306 VRB02KT CAVOK
View NOTAMs / SUP AIP / TFR affecting this airport [VIEW]
Communications frequencies: [VIEW]

Runways:

RWY identifierQFULength (ft)Width (ft)SurfaceLDA (ft)
019843148ASP
19189°9843148

Airport contact information

Address: Algeria

Satellite view of DAUK